Sexton Summit, OR

10:05 PM PST on January 20, 2018 (GMT -0800)
Sexton Summit

Weather History for KSXT - October, 2011

Change the Weather History Date:

Tuesday, October 11, 2011

  Actual Average Record
Temperature  
Mean Temperature 48 °F -  
Max Temperature 55 °F 57 °F 72 °F (1999)
Min Temperature 42 °F 43 °F 30 °F (2008)
Degree Days  
Heating Degree Days 18    
Moisture  
Dew Point 44 °F    
Average Humidity 91    
Maximum Humidity 100    
Minimum Humidity 66    
Precipitation  
Precipitation 0.00 in - - ()
Sea Level Pressure  
Sea Level Pressure 30.01 in    
Wind  
Wind Speed 12 mph (SSW)    
Max Wind Speed 17 mph    
Max Gust Speed 30 mph    
Visibility 6 miles    
Events Fog    
Averages and records for this station are not official NWS values.
T = Trace of Precipitation, MM = Missing Value Source: NWS Daily Summary

Daily Weather History Graph

Daily Weather History Graph

Search for Another Location

Airport or City:

Trip Planner

Search our weather history database for the weather conditions in past years. The results will help you decide how hot, cold, wet, or windy it might be!

Date:

Astronomy

Oct. 11, 2011 Rise Set
Actual Time 7:21 AM PDT 6:38 PM PDT
Civil Twilight 6:53 AM PDT 7:06 PM PDT
Nautical Twilight 6:20 AM PDT 7:38 PM PDT
Astronomical Twilight 5:48 AM PDT 8:11 PM PDT
Moon 6:10 PM PDT (10/11) 7:05 AM PDT (10/11)
Length of Visible Light 12h 12m
Length of Day
11h 16m
Full, 100% of the Moon is Illuminated
Oct 11
Full
Oct 11
Full
Oct 19
Last Quarter
Oct 26
New
Nov 2
First Quarter

Hourly Weather History & Observations

Time (PDT) Temp. Windchill Dew Point Humidity Pressure Visibility Wind Dir Wind Speed Gust Speed Precip Events Conditions
12:04 AM 50.0 °F - 50.0 °F 100% 29.87 in 0.2 mi SSW 12.7 mph 20.7 mph N/A Fog Fog
12:43 AM 48.2 °F - 48.2 °F 100% 29.86 in 0.5 mi SSW 16.1 mph 26.5 mph N/A Fog Fog
12:56 AM 48.0 °F - 48.0 °F 100% 29.81 in 0.5 mi SSW 17.3 mph 29.9 mph N/A Fog Fog
1:13 AM 48.2 °F - 48.2 °F 100% 29.87 in 1.5 mi SSW 15.0 mph 25.3 mph N/A   Overcast
1:19 AM 48.2 °F - 48.2 °F 100% 29.88 in 0.8 mi SSW 13.8 mph 25.3 mph N/A   Overcast
1:31 AM 46.4 °F 39.8 °F 46.4 °F 100% 29.88 in 1.5 mi SW 16.1 mph 29.9 mph N/A   Overcast
1:33 AM 46.4 °F 40.7 °F 46.4 °F 100% 29.88 in 4.0 mi SW 12.7 mph 27.6 mph N/A   Overcast
1:47 AM 46.4 °F 41.9 °F 46.4 °F 100% 29.89 in 10.0 mi SW 9.2 mph 19.6 mph N/A   Overcast
1:56 AM 46.0 °F 39.9 °F 46.0 °F 100% 29.84 in 10.0 mi SW 13.8 mph 26.5 mph N/A   Overcast
2:15 AM 46.4 °F 40.4 °F 44.6 °F 93% 29.90 in 10.0 mi SSW 13.8 mph 25.3 mph N/A   Overcast
2:20 AM 46.4 °F 40.1 °F 44.6 °F 93% 29.90 in 10.0 mi SW 15.0 mph 26.5 mph N/A   Overcast
2:34 AM 46.4 °F 40.7 °F 46.4 °F 100% 29.90 in 1.5 mi SSW 12.7 mph 20.7 mph N/A   Overcast
2:36 AM 46.4 °F 40.7 °F 46.4 °F 100% 29.90 in 0.8 mi SSW 12.7 mph 20.7 mph N/A   Overcast
2:47 AM 46.4 °F 40.1 °F 46.4 °F 100% 29.90 in 0.2 mi SSW 15.0 mph 24.2 mph N/A Fog Fog
2:56 AM 46.0 °F 39.6 °F 46.0 °F 100% 29.85 in 0.2 mi SSW 15.0 mph 25.3 mph N/A Fog Fog
3:56 AM 46.0 °F 39.9 °F 46.0 °F 100% 29.86 in 0.2 mi SSW 13.8 mph 26.5 mph N/A Fog Fog
4:56 AM 45.0 °F 38.5 °F 45.0 °F 100% 29.89 in 0.5 mi SW 13.8 mph 21.9 mph N/A Fog Fog
5:05 AM 44.6 °F 38.4 °F 44.6 °F 100% 29.93 in 1.5 mi SW 12.7 mph 21.9 mph N/A   Overcast
5:08 AM 44.6 °F 38.1 °F 44.6 °F 100% 29.93 in 3.0 mi SW 13.8 mph 21.9 mph N/A   Overcast
5:14 AM 44.6 °F 38.1 °F 44.6 °F 100% 29.93 in 1.8 mi SW 13.8 mph 23.0 mph N/A   Overcast
5:21 AM 44.6 °F 38.4 °F 44.6 °F 100% 29.93 in 2.5 mi SW 12.7 mph 23.0 mph N/A   Overcast
5:23 AM 44.6 °F 38.4 °F 44.6 °F 100% 29.93 in 4.0 mi SW 12.7 mph 19.6 mph N/A   Overcast
5:32 AM 44.6 °F 38.1 °F 44.6 °F 100% 29.94 in 1.8 mi SW 13.8 mph 20.7 mph N/A   Overcast
5:35 AM 44.6 °F 37.8 °F 44.6 °F 100% 29.94 in 0.8 mi SW 15.0 mph 20.7 mph N/A   Overcast
5:39 AM 44.6 °F 38.8 °F 44.6 °F 100% 29.94 in 0.2 mi SSW 11.5 mph 20.7 mph N/A Fog Fog
5:56 AM 45.0 °F 38.5 °F 45.0 °F 100% 29.91 in 0.2 mi SSW 13.8 mph 23.0 mph N/A Fog Fog
6:56 AM 44.1 °F 37.7 °F 44.1 °F 100% 29.94 in 0.5 mi SSW 12.7 mph 23.0 mph 0.00 in Fog Fog
7:03 AM 44.6 °F 39.2 °F 44.6 °F 100% 29.98 in 0.2 mi SW 10.4 mph 21.9 mph N/A Fog Fog
7:11 AM 44.6 °F 38.8 °F 44.6 °F 100% 29.98 in 1.0 mi SSW 11.5 mph 19.6 mph N/A   Overcast
7:16 AM 44.6 °F 38.8 °F 44.6 °F 100% 29.98 in 2.0 mi SSW 11.5 mph 20.7 mph N/A   Overcast
7:26 AM 42.8 °F 35.4 °F 42.8 °F 100% 29.98 in 5.0 mi SSW 15.0 mph 24.2 mph N/A   Overcast
7:56 AM 43.0 °F 36.0 °F 43.0 °F 100% 29.96 in 7.0 mi South 13.8 mph 24.2 mph N/A   Overcast
8:56 AM 43.0 °F 35.7 °F 42.1 °F 97% 29.99 in 8.0 mi South 15.0 mph 20.7 mph N/A   Overcast
9:56 AM 45.0 °F 38.9 °F 45.0 °F 100% 30.02 in 6.0 mi South 12.7 mph 21.9 mph N/A   Overcast
10:09 AM 46.4 °F 39.8 °F 44.6 °F 93% 30.05 in 6.0 mi South 16.1 mph 23.0 mph N/A   Overcast
10:29 AM 44.6 °F 38.4 °F 44.6 °F 100% 30.06 in 5.0 mi South 12.7 mph 21.9 mph N/A   Overcast
10:56 AM 46.0 °F 40.6 °F 45.0 °F 96% 30.04 in 6.0 mi South 11.5 mph 20.7 mph N/A   Overcast
11:18 AM 46.4 °F 42.4 °F 44.6 °F 93% 30.08 in 7.0 mi South 8.1 mph 19.6 mph N/A   Overcast
11:49 AM 46.4 °F 41.5 °F 44.6 °F 93% 30.09 in 8.0 mi South 10.4 mph 16.1 mph N/A   Overcast
11:56 AM 48.0 °F - 45.0 °F 89% 30.06 in 8.0 mi SSW 9.2 mph - N/A   Overcast
12:04 PM 48.2 °F - 44.6 °F 87% 30.10 in 9.0 mi SSW 8.1 mph 18.4 mph N/A   Overcast
12:56 PM 46.9 °F - 45.0 °F 93% 30.08 in 8.0 mi South 13.8 mph - N/A   Overcast
1:04 PM 51.8 °F - 46.4 °F 82% 30.11 in 9.0 mi South 9.2 mph 18.4 mph N/A   Mostly Cloudy
1:13 PM 51.8 °F - 46.4 °F 82% 30.11 in 10.0 mi SSW 9.2 mph - N/A   Mostly Cloudy
1:33 PM 50.0 °F - 44.6 °F 82% 30.12 in 10.0 mi SW 11.5 mph 19.6 mph N/A   Mostly Cloudy
1:41 PM 51.8 °F - 44.6 °F 76% 30.12 in 10.0 mi Variable 6.9 mph - N/A   Mostly Cloudy
1:56 PM 50.0 °F - 44.1 °F 80% 30.09 in 10.0 mi Variable 6.9 mph - N/A   Mostly Cloudy
2:56 PM 51.1 °F - 43.0 °F 74% 30.09 in 10.0 mi Variable 6.9 mph - N/A   Mostly Cloudy
3:22 PM 51.8 °F - 42.8 °F 71% 30.14 in 10.0 mi SW 10.4 mph 16.1 mph N/A   Overcast
3:38 PM 53.6 °F - 42.8 °F 67% 30.14 in 10.0 mi Variable 6.9 mph 17.3 mph N/A   Overcast
3:52 PM 51.8 °F - 41.0 °F 67% 30.14 in 10.0 mi Variable 6.9 mph - N/A   Mostly Cloudy
3:56 PM 51.1 °F - 41.0 °F 68% 30.11 in 10.0 mi Variable 6.9 mph - N/A   Mostly Cloudy
4:56 PM 51.1 °F - 42.1 °F 71% 30.12 in 10.0 mi Variable 5.8 mph - N/A   Scattered Clouds
5:06 PM 50.0 °F - 41.0 °F 71% 30.15 in 10.0 mi Variable 6.9 mph - N/A   Mostly Cloudy
5:37 PM 50.0 °F - 39.2 °F 66% 30.15 in 10.0 mi Variable 5.8 mph - N/A   Scattered Clouds
5:56 PM 48.9 °F - 39.9 °F 71% 30.13 in 10.0 mi Variable 4.6 mph - N/A   Clear
6:56 PM 46.0 °F 43.9 °F 39.9 °F 79% 30.14 in 10.0 mi Variable 4.6 mph - N/A   Clear
7:56 PM 46.0 °F 43.1 °F 39.9 °F 79% 30.16 in 10.0 mi West 5.8 mph - N/A   Scattered Clouds
8:04 PM 46.4 °F 43.5 °F 41.0 °F 81% 30.17 in 10.0 mi West 5.8 mph - N/A   Mostly Cloudy
8:56 PM 45.0 °F 41.8 °F 42.1 °F 90% 30.17 in 10.0 mi WNW 5.8 mph - N/A   Mostly Cloudy
9:56 PM 46.0 °F 43.9 °F 42.1 °F 86% 30.17 in 10.0 mi West 4.6 mph - N/A   Overcast
10:56 PM 44.1 °F 42.5 °F 41.0 °F 89% 30.19 in 10.0 mi West 3.5 mph - N/A   Scattered Clouds
11:56 PM 45.0 °F - 41.0 °F 86% 30.18 in 10.0 mi Calm Calm - N/A   Clear